• In Deutschland
  • Länderverzeichnis
  • Für 7 Tage
  • Wassertemperatur
  • Satellitenkarten
  • Wetterkarte
  • Widgets
  • user-avatar
    Anmelden

    Stündliche Wetter Kozani

    Heute, 25 Mai, Freitag

    Zeit Temperatur Niederschläge Wind Luftdruck Luftfeuchtigkeit
    00:00 +15°C° 0,1 mm 1 m/S 702 mmHg 83%
    01:00 +15°C° 0 mm 1 m/S 702 mmHg 84%
    02:00 +14°C° 0,1 mm 1 m/S 702 mmHg 85%
    03:00 +14°C° 0,1 mm 1 m/S 702 mmHg 85%
    04:00 +14°C° 0,1 mm 1 m/S 702 mmHg 86%
    05:00 +15°C° 0 mm 1 m/S 702 mmHg 82%
    06:00 +18°C° 0 mm 1 m/S 703 mmHg 77%
    07:00 +19°C° 0 mm 2 m/S 703 mmHg 72%
    08:00 +20°C° 0,2 mm 2 m/S 703 mmHg 67%
    09:00 +21°C° 0,2 mm 2 m/S 703 mmHg 62%
    10:00 +23°C° 0,2 mm 2 m/S 703 mmHg 56%
    11:00 +24°C° 0,5 mm 2 m/S 703 mmHg 55%
    12:00 +24°C° 0,5 mm 2 m/S 703 mmHg 53%
    13:00 +25°C° 0,5 mm 2 m/S 703 mmHg 51%
    14:00 +25°C° 0,2 mm 1 m/S 703 mmHg 51%
    15:00 +25°C° 0,2 mm 1 m/S 703 mmHg 51%
    16:00 +25°C° 0,2 mm 1 m/S 703 mmHg 52%
    17:00 +23°C° 0,1 mm 1 m/S 703 mmHg 57%
    18:00 +21°C° 0,1 mm 1 m/S 703 mmHg 63%
    19:00 +19°C° 0,1 mm 1 m/S 703 mmHg 68%
    20:00 +18°C° 0,2 mm 1 m/S 703 mmHg 70%
    21:00 +16°C° 0,2 mm 0 m/S 704 mmHg 72%
    22:00 +15°C° 0,2 mm 0 m/S 704 mmHg 75%
    23:00 +16°C° 0,1 mm 1 m/S 704 mmHg 75%

    Morgen, 26 Mai, Samstag

    Zeit Temperatur Niederschläge Wind Luftdruck Luftfeuchtigkeit
    00:00 +15°C° 0,1 mm 1 m/S 704 mmHg 76%
    01:00 +15°C° 0,1 mm 1 m/S 704 mmHg 77%
    02:00 +15°C° 0 mm 1 m/S 704 mmHg 77%
    03:00 +15°C° 0 mm 1 m/S 704 mmHg 78%
    04:00 +14°C° 0 mm 1 m/S 704 mmHg 79%
    05:00 +16°C° 0 mm 1 m/S 705 mmHg 75%
    06:00 +19°C° 0 mm 1 m/S 705 mmHg 71%
    07:00 +21°C° 0 mm 1 m/S 705 mmHg 67%
    08:00 +21°C° 0,1 mm 2 m/S 706 mmHg 62%
    09:00 +23°C° 0,1 mm 2 m/S 706 mmHg 57%
    10:00 +25°C° 0,1 mm 2 m/S 706 mmHg 52%
    11:00 +25°C° 0,2 mm 2 m/S 706 mmHg 51%
    12:00 +26°C° 0,2 mm 2 m/S 706 mmHg 49%
    13:00 +26°C° 0,2 mm 1 m/S 706 mmHg 47%
    14:00 +26°C° 0,1 mm 1 m/S 706 mmHg 47%
    15:00 +26°C° 0,1 mm 1 m/S 706 mmHg 48%
    16:00 +26°C° 0,1 mm 1 m/S 705 mmHg 48%
    17:00 +24°C° 0,1 mm 1 m/S 705 mmHg 54%
    18:00 +22°C° 0,1 mm 1 m/S 705 mmHg 60%
    19:00 +20°C° 0,1 mm 1 m/S 705 mmHg 66%
    20:00 +20°C° 0,4 mm 1 m/S 705 mmHg 69%
    21:00 +19°C° 0,4 mm 1 m/S 705 mmHg 71%
    22:00 +18°C° 0,4 mm 1 m/S 706 mmHg 74%
    23:00 +18°C° 0,2 mm 1 m/S 705 mmHg 75%

    übermorgen, 27 Mai, Sonntag

    Zeit Temperatur Niederschläge Wind Luftdruck Luftfeuchtigkeit
    00:00 +16°C° 0,2 mm 1 m/S 705 mmHg 77%
    01:00 +16°C° 0,2 mm 1 m/S 705 mmHg 79%
    02:00 +16°C° 0 mm 1 m/S 705 mmHg 81%
    03:00 +15°C° 0 mm 1 m/S 705 mmHg 83%
    04:00 +15°C° 0 mm 1 m/S 705 mmHg 85%
    05:00 +16°C° 0 mm 1 m/S 706 mmHg 81%
    06:00 +19°C° 0 mm 1 m/S 706 mmHg 77%
    07:00 +21°C° 0 mm 1 m/S 706 mmHg 73%
    08:00 +22°C° 0 mm 1 m/S 706 mmHg 68%
    09:00 +23°C° 0 mm 1 m/S 706 mmHg 64%
    10:00 +24°C° 0 mm 1 m/S 707 mmHg 59%
    11:00 +25°C° 0,4 mm 1 m/S 707 mmHg 58%
    12:00 +26°C° 0,4 mm 1 m/S 706 mmHg 56%
    13:00 +26°C° 0,4 mm 1 m/S 706 mmHg 54%
    14:00 +26°C° 0,9 mm 1 m/S 706 mmHg 55%
    15:00 +26°C° 0,9 mm 1 m/S 706 mmHg 57%
    16:00 +25°C° 0,9 mm 2 m/S 706 mmHg 58%
    17:00 +24°C° 0,7 mm 1 m/S 706 mmHg 65%
    18:00 +22°C° 0,7 mm 1 m/S 706 mmHg 72%
    19:00 +20°C° 0,7 mm 1 m/S 706 mmHg 78%
    20:00 +19°C° 0,4 mm 1 m/S 706 mmHg 81%
    21:00 +19°C° 0,4 mm 1 m/S 706 mmHg 84%
    22:00 +18°C° 0,4 mm 1 m/S 706 mmHg 87%
    23:00 +16°C° 0,2 mm 1 m/S 706 mmHg 88%

    28 Mai, Montag

    Zeit Temperatur Niederschläge Wind Luftdruck Luftfeuchtigkeit
    00:00 +16°C° 0,2 mm 1 m/S 706 mmHg 89%
    01:00 +15°C° 0,2 mm 0 m/S 706 mmHg 90%
    02:00 +14°C° 0,1 mm 0 m/S 706 mmHg 91%
    03:00 +14°C° 0,1 mm 0 m/S 705 mmHg 92%
    04:00 +14°C° 0,1 mm 0 m/S 705 mmHg 92%
    05:00 +15°C° 0,1 mm 0 m/S 706 mmHg 88%
    06:00 +17°C° 0,1 mm 0 m/S 706 mmHg 84%
    07:00 +20°C° 0,1 mm 1 m/S 707 mmHg 80%
    08:00 +21°C° 0,2 mm 1 m/S 707 mmHg 76%
    09:00 +22°C° 0,2 mm 1 m/S 707 mmHg 72%
    10:00 +23°C° 0,2 mm 2 m/S 707 mmHg 68%
    11:00 +24°C° 0,6 mm 2 m/S 706 mmHg 66%
    12:00 +24°C° 0,6 mm 2 m/S 706 mmHg 64%
    13:00 +25°C° 0,6 mm 2 m/S 706 mmHg 62%
    14:00 +25°C° 1,1 mm 2 m/S 706 mmHg 62%
    15:00 +24°C° 1,1 mm 1 m/S 706 mmHg 63%
    16:00 +24°C° 1,1 mm 1 m/S 705 mmHg 64%
    17:00 +23°C° 0,8 mm 1 m/S 705 mmHg 69%
    18:00 +21°C° 0,8 mm 1 m/S 705 mmHg 75%
    19:00 +20°C° 0,8 mm 1 m/S 705 mmHg 81%
    20:00 +19°C° 0,4 mm 1 m/S 705 mmHg 84%
    21:00 +18°C° 0,4 mm 1 m/S 705 mmHg 86%
    22:00 +16°C° 0,4 mm 1 m/S 705 mmHg 89%
    23:00 +16°C° 0,1 mm 1 m/S 705 mmHg 89%

    29 Mai, Dienstag

    Zeit Temperatur Niederschläge Wind Luftdruck Luftfeuchtigkeit
    00:00 +16°C° 0,1 mm 1 m/S 705 mmHg 90%
    01:00 +14°C° 0,1 mm 0 m/S 705 mmHg 91%
    02:00 +14°C° 0 mm 0 m/S 705 mmHg 92%
    03:00 +14°C° 0 mm 0 m/S 705 mmHg 92%
    04:00 +13°C° 0 mm 0 m/S 705 mmHg 93%
    05:00 +15°C° 0 mm 0 m/S 705 mmHg 88%
    06:00 +16°C° 0 mm 0 m/S 705 mmHg 84%
    07:00 +20°C° 0 mm 1 m/S 706 mmHg 79%
    08:00 +21°C° 0,2 mm 1 m/S 706 mmHg 74%
    09:00 +22°C° 0,2 mm 1 m/S 706 mmHg 69%
    10:00 +23°C° 0,2 mm 1 m/S 706 mmHg 64%
    11:00 +24°C° 0,4 mm 1 m/S 706 mmHg 61%
    12:00 +25°C° 0,4 mm 1 m/S 705 mmHg 59%
    13:00 +25°C° 0,4 mm 1 m/S 705 mmHg 56%
    14:00 +25°C° 0,5 mm 2 m/S 705 mmHg 57%
    15:00 +25°C° 0,5 mm 2 m/S 705 mmHg 58%
    16:00 +25°C° 0,5 mm 2 m/S 704 mmHg 58%
    17:00 +23°C° 0,5 mm 2 m/S 704 mmHg 65%
    18:00 +21°C° 0,5 mm 1 m/S 704 mmHg 72%
    19:00 +19°C° 0,5 mm 1 m/S 704 mmHg 78%
    20:00 +19°C° 0,1 mm 1 m/S 704 mmHg 80%
    21:00 +18°C° 0,1 mm 1 m/S 704 mmHg 83%
    22:00 +16°C° 0,1 mm 1 m/S 704 mmHg 85%
    23:00 +16°C° 0 mm 1 m/S 704 mmHg 85%

    30 Mai, Mittwoch

    Zeit Temperatur Niederschläge Wind Luftdruck Luftfeuchtigkeit
    00:00 +15°C° 0 mm 0 m/S 704 mmHg 86%
    01:00 +14°C° 0 mm 0 m/S 703 mmHg 87%
    02:00 +14°C° 0 mm 0 m/S 703 mmHg 87%
    03:00 +15°C° 0 mm 1 m/S 703 mmHg 88%
    04:00 +14°C° 0 mm 1 m/S 703 mmHg 88%
    05:00 +16°C° 0 mm 1 m/S 704 mmHg 83%
    06:00 +17°C° 0 mm 0 m/S 704 mmHg 77%
    07:00 +19°C° 0 mm 0 m/S 704 mmHg 72%
    08:00 +22°C° 0,3 mm 1 m/S 705 mmHg 67%
    09:00 +23°C° 0,3 mm 1 m/S 705 mmHg 62%
    10:00 +25°C° 0,3 mm 1 m/S 705 mmHg 58%
    11:00 +25°C° 0,4 mm 1 m/S 704 mmHg 56%
    12:00 +26°C° 0,4 mm 1 m/S 704 mmHg 54%
    13:00 +26°C° 0,4 mm 1 m/S 704 mmHg 52%
    14:00 +26°C° 0,6 mm 1 m/S 704 mmHg 53%
    15:00 +26°C° 0,6 mm 1 m/S 704 mmHg 54%
    16:00 +25°C° 0,6 mm 1 m/S 704 mmHg 55%
    17:00 +24°C° 0,6 mm 1 m/S 703 mmHg 62%
    18:00 +22°C° 0,6 mm 1 m/S 703 mmHg 68%
    19:00 +20°C° 0,6 mm 1 m/S 703 mmHg 74%
    20:00 +19°C° 0,2 mm 1 m/S 703 mmHg 78%
    21:00 +18°C° 0,2 mm 1 m/S 704 mmHg 82%
    22:00 +18°C° 0,2 mm 1 m/S 704 mmHg 86%
    23:00 +16°C° 0 mm 1 m/S 703 mmHg 87%
    Mehr zeigen